Regional Weather Roundup
Issued by NWS

Home | Current Version | Previous Version | Text Only | Print | Product List | Glossary On
Versions: 1 2 3 4 5 6 7 8 9 10 11 12 13 14 15 16 17 18 19 20 21 22 23 24 25 26 27 28 29 30 31 32 33 34 35 36 37 38 39 40 41 42 43 44 45 46 47 48 49 50
000
ASUS43 KMKX 020700
RWRWI

WISCONSIN REGIONAL WEATHER ROUNDUP
NATIONAL WEATHER SERVICE MILWAUKEE/SULLIVAN WI
200 AM CDT SUN AUG 02 2015

NOTE: "FAIR" INDICATES FEW OR NO CLOUDS BELOW 12,000 FEET WITH NO
SIGNIFICANT WEATHER AND/OR OBSTRUCTIONS TO VISIBILITY.

WIZ001-002-006>008-014>016-023>028-020800-
NORTHWEST WISCONSIN

CITY           SKY/WX    TMP DP  RH WIND       PRES   REMARKS
SUPERIOR ARPT  CLEAR     63  59  88 SW3       29.66F
ASHLAND        CLEAR     60  58  92 S3        29.68F
HAYWARD        PTCLDY    69  63  81 S7        29.72F
SIREN          CLEAR     72  65  77 SW8       29.71F
CUMBERLAND     CLEAR     64  63  94 SW5       29.74F
RICE LAKE      CLEAR     67  63  85 SE3       29.76F
CHETEK         CLEAR     68  65  88 CALM      29.75F
LADYSMITH      MOCLDY    69  63  80 S8        29.77F
EAU CLAIRE     NOT AVBL
MENOMONIE      PTCLDY    73  66  81 SW8       29.76F
NEW RICHMOND   PTCLDY    71  65  83 SW7       29.75F
OSCEOLA        PTCLDY    73  66  80 S5        29.75F
$$

WIZ003>005-009-010-017-018-020800-
NORTH CENTRAL WISCONSIN

CITY           SKY/WX    TMP DP  RH WIND       PRES   REMARKS
MANITOWISH WTR CLEAR     56  56 100 CALM      29.75F
ARBOR VITAE    CLEAR     59  57  91 CALM      29.76F
WOODRUFF       CLEAR     59  57  91 CALM      29.76F
RHINELANDER    PTCLDY    65  58  78 SW8       29.77F
EAGLE RIVER    CLEAR     56  54  92 CALM      29.76F
LAND O LAKES   CLEAR     52  51  97 CALM      29.76F
PHILLIPS       CLEAR     64  61  91 S5        29.75F
TOMAHAWK       MOCLDY    66  59  78 S5        29.78F
MEDFORD        CLOUDY    69  63  81 SW12      29.79F
MERRILL        NOT AVBL
$$

WIZ029-030-035-036-043>047-020800-
CENTRAL WISCONSIN

CITY           SKY/WX    TMP DP  RH WIND       PRES   REMARKS
WAUSAU         MOCLDY    69  61  75 SW10      29.78F THUNDER
MOSINEE        MOCLDY    63  61  94 S5        29.81F
MARSHFIELD     LGT RAIN  67  60  78 SW5       29.80F
STEVENS POINT  LGT RAIN  65  59  79 S3        29.81S
WAUPACA        PTCLDY    64  59  82 CALM      29.80F
WAUTOMA        NOT AVBL
WISC RAPIDS    PTCLDY    66  60  81 S5        29.81S
CAMP DOUGLAS   NOT AVBL
$$

WIZ011>013-019>022-031-037>040-048>050-020800-
NORTHEAST WISCONSIN

CITY           SKY/WX    TMP DP  RH WIND       PRES   REMARKS
ANTIGO         PTCLDY    65  58  80 SW9       29.80F
SHAWANO        PTCLDY    66  56  70 SW3       29.78F
OCONTO         CLEAR     57  55  95 CALM      29.77F
STURGEON BAY   CLEAR     64  52  63 S7        29.80F
GREEN BAY      CLEAR     65  58  78 S6        29.78F
MANITOWOC      NOT AVBL
APPLETON       CLEAR     68  55  64 SW9       29.81S
CLINTONVILLE   PTCLDY    63  54  72 CALM      29.78F
OSHKOSH        CLEAR     71  59  65 SW9       29.80F
$$

WIZ032>034-041-042-053>061-020800-
SOUTHWEST WISCONSIN

CITY           SKY/WX    TMP DP  RH WIND       PRES   REMARKS
LA CROSSE      PTCLDY    75  68  78 E3        29.79S
SPARTA         PTCLDY    73  65  74 SW5       29.81S
VIROQUA        PTCLDY    72  68  87 SW13      29.83F
BOSCOBEL       CLEAR     72  68  87 S5        29.83F
PRAIRIE DU CHI CLEAR     73  66  79 CALM      29.85S
PLATTEVILLE    PTCLDY    70  68  94 S5        29.87F
$$

WIZ056-057-062-063-064-067-068-020800-
SOUTH CENTRAL WISCONSIN

CITY           SKY/WX    TMP DP  RH WIND       PRES   REMARKS
REEDSBURG      MOCLDY    73  67  82 SW7       29.82F
BARABOO/DELLS  MOCLDY    72  64  77 SW7       29.82F
LONE ROCK      NOT AVBL
MINERAL POINT  PTCLDY    73  68  83 SW8       29.88S
MADISON        PTCLDY    76  68  76 VRB7      29.84F
MIDDLETON      MOCLDY    75  67  77 SW12      29.85F
WATERTOWN      PTCLDY    67  67 100 S3        29.84F
MONROE         CLEAR     70  66  88 SW14      29.88S
JANESVILLE     CLEAR     70  68  94 SW8       29.86F
$$

WIZ051-052-058>065-066-070>072-020800-
SOUTHEAST WISCONSIN

CITY           SKY/WX    TMP DP  RH WIND       PRES   REMARKS
MILWAUKEE      PTCLDY    72  65  78 SW9       29.85F
WAUKESHA       PTCLDY    70  64  83 SW8       29.86F
MILWAUKEE/TIMM PTCLDY    68  59  73 SW5       29.85F
RACINE         PTCLDY    71  65  81 SW6       29.87S
BURLINGTON     PTCLDY    67  65  90 SW5       29.86F
KENOSHA        PTCLDY    70  65  84 W9        29.86F
FOND DU LAC    CLEAR     67  60  78 S7        29.82F
SHEBOYGAN      CLEAR     62  58  86 SW5       29.81F
WEST BEND      CLEAR     68  59  73 SW5       29.84S
JUNEAU         PTCLDY    65  60  85 S6        29.85F
$$

LSZ147-162-020800-
LAKE SUPERIOR

STATION/POSITION TIME  TEMP    WIND        PRES    WAVE
                       AIR SEA DIR/SP/G            HT/PER
                 (UTC) (F)     (DEG/KT/KT) (MB)    (FT/S)
W MID LAKE BUOY  0550   62 56  210/ 14/ 14 1004.1F   1/ 3
DEVILS ISLAND    0600   67     230/  9/ 11 1004.3F
PORT WING        0600   67     150/  2/  5 1005.1F
SAXON HARBOR     0600   68                 1005.1
$$

LMZ867-665-643>646-020800-
LAKE MICHIGAN

STATION/POSITION TIME  TEMP    WIND        PRES    WAVE
                       AIR SEA DIR/SP/G            HT/PER
                 (UTC) (F)     (DEG/KT/KT) (MB)    (FT/S)
CHAMBERS ISLAND  0600   70     200/  4/  8 1008.1F
S GREEN BAY BUOY 0600   70 69  220/ 10/ 12 1010.1F
N MID LAKE BUOY  0550   70 69  220/ 12/ 14 1007.3F   1/ 4
NORTHPORT PIER   0600   66     180/  2/  6 1008.1F
SISTER BAY       0645   69     190/  6/  8   N/A
ALGOMA LAKESHORE 0612          220/  7/  9   N/A
KEWAUNEE LAKESHO 0600   66     250/  4/  5 1008.7F
SHEBOYGAN LAKESH 0600   67     200/  2/  2 1009.9F
PORT WASHINGTON  0640   71     250/  6/  8 1010.5F
ATWATER BUOY     0600   71 63  230/ 10/ 12 1012.1R
MILWAUKEE LAKESH 0600   74     250/ 10/ 13   N/A
KENOSHA   LAKESH 0600   74     250/  9/ 11 1010.8S
$$

TC  - TEMPERATURE IN CELSIUS
VSB - VISIBILITY IN STATUTE MILES
WCI - WIND CHILL INDEX
HX  - HEAT INDEX




USA.gov is the U.S. government's official web portal to all federal, state and local government web resources and services.